Preview of NWS' New Version of Forecast
This preview is not operational and should not be used for support decisions.

Regional Weather Roundup (RWR)

Issued by National Weather Service (NWS)

                            
000
ASUS43 KDMX 241806
RWRIA 

WEATHER ROUNDUP FOR IOWA
NATIONAL WEATHER SERVICE DES MOINES IA
100 PM CDT MON JUN 24 2019

NOTE: "FAIR" INDICATES FEW OR NO CLOUDS BELOW 12,000 FEET WITH NO
SIGNIFICANT WEATHER AND/OR OBSTRUCTIONS TO VISIBILITY.

* - THESE STATIONS ARE NOT NWS STATIONS...THUS NOT UNDER NWS
QUALITY CONTROL.  THEY ALSO DO NOT REPORT WEATHER SUCH 
AS PRECIPITATION OR FOG.  

IAZ001>003-012>014-020>022-031>034-043>046-241900-
   NORTHWEST IOWA
  
CITY           SKY/WX    TMP DP  RH WIND       PRES   REMARKS
CARROLL *      SUNNY     73  55  53 W10G17    29.75S                  
CHEROKEE *     SUNNY     73  59  62 SW14      29.74R                  
DENISON *      SUNNY     72  57  60 W12       29.78S                  
LE MARS *      SUNNY     73  61  64 W10       29.73S                  
SHELDON *      SUNNY     72  66  83 SW13      29.71S                  
SIOUX CITY     SUNNY     76  60  57 W8        29.74F                  
6HR MIN TEMP:  57; 6HR MAX TEMP:  77;                                

SPENCER        PTSUNNY   73  61  65 SW9       29.73R                  
6HR MIN TEMP:  62; 6HR MAX TEMP:  73; 6HR PCP: TRACE;                

STORM LAKE *     N/A     70  57  64 W14G20    29.71F                  
$$
 
IAZ055>058-069>071-079>083-090>094-241900-
   SOUTHWEST IOWA
  
CITY           SKY/WX    TMP DP  RH WIND       PRES   REMARKS
ATLANTIC *     SUNNY     73  55  53 W13G18    29.77S                  
AUDUBON *      MOSUNNY   73  57  56 CALM      29.78S                  
CLARINDA *     SUNNY     75  57  53 W12G18    29.82S                  
COUNCIL BLFS * SUNNY     73  57  56 SW12G18   29.77S                  
CRESTON *      MOSUNNY   72  57  60 W14G20    29.78S                  
HARLAN  *      SUNNY     73  57  56 W15G21    29.77F                  
LAMONI         MOSUNNY   73  56  54 W16G23    29.79S                  
6HR MIN TEMP:  63; 6HR MAX TEMP:  73;                                

RED OAK *      SUNNY     75  55  50 W8G20     29.79S                  
SHENANDOAH *   SUNNY     75  57  53 W13       29.79S                  
$$
 
IAZ047>049-059>061-072>074-084-241900-
   CENTRAL IOWA
  
CITY           SKY/WX    TMP DP  RH WIND       PRES   REMARKS
AMES           CLOUDY    71  59  65 W14G23    29.73R                  
6HR MIN TEMP:  62; 6HR MAX TEMP:  72; 6HR PCP: TRACE;                

ANKENY *       MOSUNNY   72  59  64 W14       29.74S                  
BOONE *        LGT RAIN  70  61  73 W16G25    29.73S                  
CHARITON *     SUNNY     72  59  64 W13G21    29.76R                  
DES MOINES     PTSUNNY   73  55  53 NW14G23   29.73S                  
6HR MIN TEMP:  62; 6HR MAX TEMP:  74; 6HR PCP: TRACE;                

GRINNELL*      CLOUDY    68  59  73 W16       29.73R                  
KNOXVILLE *    MOSUNNY   70  59  68 W16       29.74S                  
MARSHALLTOWN   PTSUNNY   69  60  73 W21G29    29.70R                  
6HR MIN TEMP:  61; 6HR MAX TEMP:  70; 6HR PCP: TRACE;                

NEWTON *       CLOUDY    68  61  77 W15       29.74R                  
PELLA *        MOSUNNY   70  59  69 W18       29.75R                  
$$
 
IAZ004>006-015-016-023>025-035-036-241900-
   NORTH CENTRAL IOWA
  
CITY           SKY/WX    TMP DP  RH WIND       PRES   REMARKS
ALGONA *       PTSUNNY   70  61  73 W13       29.71R                  
CLARION *      PTSUNNY   70  61  73 W14       29.71F                  
ESTHERVILLE    PTSUNNY   69  59  70 SW14      29.70S                  
6HR MIN TEMP:  58; 6HR MAX TEMP:  69; 6HR PCP: TRACE;                

FORT DODGE *   PTSUNNY   69  59  70 W12       29.74S                  
MASON CITY     LGT RAIN  63  59  87 W15       29.70S                  
6HR MIN TEMP:  62; 6HR MAX TEMP:  71; 6HR PCP: TRACE;                

FOREST CITY *  PTSUNNY   72  59  64 W9        29.69S                  
IOWA FALLS *   CLOUDY    67  60  77 W13       29.73R                  
$$

IAZ007>011-017>019-026>030-037>042-050>054-066-241900-
   NORTHEAST IOWA
  
CITY           SKY/WX    TMP DP  RH WIND       PRES   REMARKS
CEDAR RAPIDS   CLOUDY    71  62  73 W17       29.66S                  
6HR MIN TEMP:  66; 6HR MAX TEMP:  71;                                

CHARLES CITY * PTSUNNY   72  59  64 W21G30    29.66S                  
CLINTON *      PTSUNNY   78  66  66 W18G25    29.63S HX  80           
DECORAH *        N/A     68  61  77 W8        29.63R                  
DUBUQUE        PTSUNNY   72  64  76 W17G28    29.61S                  
6HR MIN TEMP:  67; 6HR MAX TEMP:  75;                                

MONTICELLO *   PTSUNNY   72  66  83 W15G24    29.63S                  
OELWEIN *      CLOUDY    68  64  88 NW12G21   29.66R                  
WATERLOO       LGT RAIN  70  60  70 W12       29.66R                  
6HR MIN TEMP:  65; 6HR MAX TEMP:  72; 6HR PCP:  0.18;                

$$
 
IAZ064-065-067-068-078-241900-
   EAST CENTRAL IOWA
  
CITY           SKY/WX    TMP DP  RH WIND       PRES   REMARKS
DAVENPORT      PTSUNNY   74  62  66 W18G29    29.66R                  
6HR MIN TEMP:  69; 6HR MAX TEMP:  77;                                

IOWA CITY      CLOUDY    72  62  71 W17G23    29.68S                  
6HR MIN TEMP:  67; 6HR MAX TEMP:  73;                                

MT. PLEASANT * CLOUDY    70  63  78 W14G24    29.72R                  
MUSCATINE *    CLOUDY    73  63  68 W14G21    29.68S                  
QUAD CITIES    PTSUNNY   80  64  58 SW18G26   29.64R HX  82           
6HR MIN TEMP:  71; 6HR MAX TEMP:  81;                                

$$
 
IAZ062-063-075>077-085>089-095>099-241900-
   SOUTHEAST IOWA
  
CITY           SKY/WX    TMP DP  RH WIND       PRES   REMARKS
BURLINGTON     MOSUNNY   75  62  64 W14G28    29.71R                  
6HR MIN TEMP:  68; 6HR MAX TEMP:  76;                                

FAIRFIELD *    CLOUDY    68  63  83 W10       29.72S                  
FORT MADISON * PTSUNNY   73  64  73 W16       29.73R                  
KEOKUK *       PTSUNNY   73  61  64 W15G22    29.72S                  
OSKALOOSA *    CLOUDY    68  60  75 W14G22    29.73R                  
CENTERVILLE *  FAIR      72  63  73 W12G22    29.77S                  
OTTUMWA        CLOUDY    70  61  73 W13G24    29.73R                  
6HR MIN TEMP:  65; 6HR MAX TEMP:  71; 6HR PCP: TRACE;                

WASHINGTON *   CLOUDY    70  70 100 W16       29.69R                  
$$

ABBREVIATIONS USED IN REMARKS
   TC - TEMPERATURES IN CELSIUS
  WCI - WIND CHILL INDEX
   HX - HEAT INDEX
  VSB - VISIBILITY  
$$